Location: ??
(35.5052°N, 139.7262°E)
Time: 02:36:27
(UTC+00:00)

ERS-1 Rocket - Pass Details

Date: 20 June 2021
Orbit: 752 x 758 km, 98.4° (Epoch: 26 July)

Event Time Altitude Azimuth Distance (km) Brightness Sun altitude
Exits shadow 12:04:08 39° 118° (ESE) 1,120 3.4 -20.1°
Maximum altitude 12:05:29 50° 73° (ENE) 958 3.3 -20.3°
Drops below altitude 10° 12:10:21 10° 359° (N) 2,293 6.2 -20.9°
Sets 12:12:43 0° 354° (N) 3,222 7.2 -21.2°
